Vertical_Velocity
3 7 -1 2 2 2 5 4 4 4 3 5 -2 -4 -2 -1 -0 -5 0 1 4 1 -1 2 3 -2 -1 -1 5 4 -1 1 3 4 -0 1 0 -0
-3 2 -1 2 7 5 3 5 3 -0 -2 2 0 1 0 3 3 1 -2 2 0 -1 -3 7 -6 1 -5 1 4 -1 -4 3 -1 2 1 2 -0 -1
6 2 4 6 6 4 3 4 4 -5 -2 -5 -2 -1 0 1 2 4 1 -0 -0 -4 1 -3 2 2 -3 -5 0 -2 2 -1 -2 0 2 0 1 -1
7 9 6 -2 4 2 -0 2 -3 -2 -5 -0 -4 -2 3 -4 3 -2 -6 -1 2 2 2 -5 4 5 0 -0 -1 2 -1 1 -1 -0 1 -0 0 -1
-0 2 1 -2 -6 -4 0 -4 1 -4 1 -2 3 5 1 2 -2 -2 -3 -0 -2 1 3 -0 -1 4 -2 0 1 2 -0 -1 -1 -1 -1 1 0 -0
1 0 0 -0 1 1 2 3 1 4 1 0 3 1 1 2 2 -0 3 -5 -4 1 3 2 1 -2 2 1 1 1 -1 -2 -1 -1 -1 0 -0 -0
-1 1 1 2 -1 -1 -0 1 2 2 4 3 2 3 4 -1 -1 4 -0 0 -1 -1 -1 1 -4 4 -0 5 0 0 -0 -0 -0 -1 -0 1 -1 -2
-1 -0 1 -1 1 0 1 0 1 -2 1 2 1 0 4 3 -6 1 2 1 -2 -6 3 2 -1 1 2 2 -1 -1 0 -1 -1 -0 1 -1 -2 -1
1 1 1 -2 -0 0 -0 -1 2 3 1 2 1 -1 3 -2 1 -0 -1 3 1 -3 1 0 0 2 2 2 -0 -0 0 -0 -1 -1 -1 -2 -0 -2
-2 -2 2 2 -2 -0 -1 2 1 0 -1 2 1 4 1 3 -3 -1 1 2 1 -3 3 -0 0 0 1 2 -0 -0 -0 -1 -0 -1 -2 -1 -2 -2
-1 -0 -2 -2 -1 -1 0 -1 1 2 5 2 1 2 5 3 2 0 1 1 -2 2 2 -4 -1 -0 2 2 -0 -0 -0 -1 -0 -0 -2 -2 -1 -1
-2 -3 -1 -1 0 -2 -1 1 0 -1 4 1 5 3 2 0 1 3 1 -3 2 4 -1 0 -1 0 1 1 1 0 0 -0 -0 -2 -2 -1 -1 -1
-1 -0 -1 -1 1 0 -1 1 3 3 1 4 2 1 1 -1 4 1 -0 4 2 -2 -1 -0 -0 0 0 0 -0 1 1 -1 -0 -2 -1 -2 -1 -0
-2 -1 -1 -0 -1 -1 -1 2 -0 -0 0 1 1 0 -0 2 4 2 3 1 -1 -0 0 -1 -1 0 0 1 -1 1 0 0 -1 -1 -2 -2 -0 -1
-0 -1 0 -1 1 -0 1 -1 -1 2 1 1 -1 2 0 -1 2 4 3 -2 -2 1 1 -1 0 -1 0 1 1 2 0 1 -2 -0 -1 -0 -2 1
-1 -2 1 -0 1 -0 1 -3 0 1 1 -2 -3 -1 -1 1 4 4 1 -2 -0 1 0 -0 -1 -0 0 -1 -1 3 -0 1 4 1 -1 -1 -0 2
-2 -2 -1 -1 0 1 1 1 1 0 -0 -0 2 2 3 4 5 0 0 0 -0 1 -0 -1 -2 -0 0 1 -3 -1 -1 -2 -0 -0 1 -4 -4 1
-2 -1 -0 1 -0 1 1 -1 -1 1 2 3 4 3 7 5 2 1 0 -1 1 2 1 -1 -0 1 -1 3 -2 -1 1 -1 -1 -2 1 2 -10 1
-1 -0 -2 -0 -2 0 3 1 -2 2 1 1 3 5 3 0 1 -0 -1 -0 1 -0 0 1 0 0 4 -1 4 -2 -0 2 -1 -2 4 4 2 -8
-1 -1 -1 -1 -0 -0 1 2 1 2 0 1 1 1 1 1 0 -1 -0 -1 -1 0 0 0 1 2 2 4 1 -5 5 1 2 -1 -1 1 6 -4
1 -2 -2 1 0 0 -0 1 -0 1 2 1 -2 1 1 4 0 -0 -0 -1 -0 0 -1 1 3 2 1 2 -0 -2 -6 2 1 0 -4 0 1 -6
-2 -0 -2 -0 -0 1 -0 -1 1 2 3 4 4 4 2 3 0 -1 -0 1 2 1 1 -0 5 5 2 2 0 0 -2 -8 3 5 -0 4 3 1
0 -1 -1 -0 1 -0 0 1 1 1 1 1 0 -2 -0 4 1 1 1 1 1 2 -1 -2 0 4 2 2 2 -1 -2 -4 -3 0 -6 10 5 7
Height
5783 5784 5783 5782 5781 5781 5780 5778 5777 5777 5777 5775 5773 5771 5769 5767 5765 5762 5758 5756 5752 5748 5745 5742 5739 5737 5736 5733 5733 5732 5731 5729 5726 5724 5724 5722 5722 5721
5773 5773 5772 5771 5773 5772 5769 5768 5766 5765 5767 5765 5761 5759 5756 5754 5753 5750 5747 5745 5741 5738 5736 5733 5731 5730 5728 5727 5726 5725 5723 5721 5720 5718 5718 5717 5716 5715
5761 5760 5760 5760 5760 5760 5758 5758 5755 5752 5751 5751 5751 5748 5744 5742 5741 5738 5736 5732 5731 5728 5726 5725 5722 5721 5720 5719 5718 5717 5715 5715 5713 5712 5711 5710 5709 5708
5752 5751 5751 5751 5749 5746 5743 5743 5741 5738 5736 5737 5737 5736 5734 5732 5730 5726 5725 5721 5719 5718 5716 5714 5713 5713 5712 5712 5710 5709 5708 5708 5706 5706 5705 5704 5703 5701
5741 5739 5736 5736 5737 5735 5732 5730 5729 5728 5728 5727 5726 5725 5724 5723 5720 5719 5716 5713 5711 5708 5707 5706 5704 5705 5705 5704 5703 5702 5700 5700 5699 5699 5698 5697 5696 5694
5730 5728 5727 5726 5726 5725 5723 5722 5719 5718 5718 5716 5714 5712 5713 5711 5710 5709 5707 5705 5703 5700 5698 5697 5697 5697 5697 5697 5696 5694 5694 5693 5692 5692 5691 5690 5688 5686
5721 5719 5717 5715 5715 5714 5712 5709 5709 5705 5703 5703 5701 5700 5699 5698 5699 5698 5697 5695 5693 5691 5689 5689 5689 5690 5690 5690 5688 5688 5687 5686 5686 5685 5684 5683 5681 5678
5709 5706 5704 5704 5701 5700 5697 5696 5693 5691 5690 5688 5687 5687 5686 5687 5687 5687 5685 5684 5684 5682 5681 5680 5681 5682 5682 5682 5681 5680 5680 5679 5679 5678 5677 5675 5672 5669
5695 5693 5691 5689 5687 5684 5682 5679 5678 5676 5675 5674 5673 5673 5675 5675 5676 5675 5673 5673 5673 5670 5672 5672 5673 5674 5674 5674 5673 5673 5673 5673 5672 5671 5669 5666 5664 5661
5681 5679 5676 5674 5672 5669 5666 5663 5662 5662 5661 5661 5660 5659 5662 5664 5664 5663 5662 5663 5663 5662 5663 5663 5664 5665 5666 5666 5666 5666 5666 5665 5664 5662 5660 5658 5654 5651
5666 5664 5662 5660 5658 5655 5652 5650 5649 5648 5648 5648 5647 5649 5650 5651 5652 5651 5652 5652 5652 5654 5655 5655 5657 5657 5658 5658 5658 5658 5658 5657 5656 5654 5652 5649 5645 5642
5652 5650 5649 5646 5644 5642 5640 5639 5637 5636 5636 5636 5636 5638 5640 5640 5640 5641 5642 5643 5644 5645 5646 5648 5649 5650 5651 5651 5650 5650 5650 5649 5647 5645 5642 5639 5635 5632
5640 5638 5637 5634 5632 5630 5628 5627 5626 5625 5625 5626 5626 5628 5629 5629 5630 5631 5632 5634 5636 5637 5639 5641 5642 5642 5643 5642 5642 5642 5641 5640 5638 5636 5632 5629 5626 5622
5628 5626 5625 5623 5622 5619 5617 5616 5616 5615 5616 5617 5617 5618 5618 5619 5621 5622 5624 5626 5627 5630 5631 5633 5634 5634 5634 5634 5633 5633 5633 5631 5629 5626 5622 5618 5615 5612
5617 5615 5613 5612 5611 5609 5608 5607 5607 5607 5607 5608 5609 5609 5610 5610 5612 5614 5616 5617 5619 5622 5624 5624 5625 5626 5626 5626 5625 5624 5623 5621 5619 5616 5611 5608 5605 5602
5607 5604 5603 5601 5600 5600 5599 5598 5598 5598 5598 5598 5599 5600 5600 5601 5604 5606 5608 5609 5611 5614 5615 5616 5616 5617 5616 5616 5616 5615 5613 5612 5610 5606 5601 5598 5594 5591
5597 5594 5592 5591 5590 5589 5589 5588 5587 5588 5589 5589 5590 5591 5592 5594 5597 5598 5599 5601 5603 5605 5606 5607 5607 5608 5607 5607 5605 5604 5602 5600 5598 5595 5591 5586 5582 5580
5587 5584 5583 5582 5581 5580 5580 5580 5580 5580 5581 5581 5582 5584 5585 5587 5588 5589 5590 5592 5594 5596 5597 5597 5598 5598 5597 5597 5595 5593 5591 5589 5587 5584 5580 5576 5570 5568
5577 5575 5572 5572 5570 5571 5571 5572 5572 5572 5573 5572 5574 5576 5577 5578 5579 5580 5581 5583 5584 5586 5587 5587 5588 5588 5587 5585 5585 5582 5581 5579 5575 5572 5569 5566 5561 5556
5569 5566 5565 5563 5562 5562 5562 5562 5562 5563 5563 5564 5565 5566 5568 5569 5570 5571 5572 5573 5575 5576 5576 5577 5577 5577 5576 5575 5573 5571 5569 5567 5564 5561 5557 5554 5551 5546
5560 5558 5556 5555 5554 5554 5554 5554 5554 5554 5555 5556 5557 5558 5559 5560 5560 5561 5563 5564 5565 5565 5566 5566 5566 5565 5564 5563 5561 5559 5557 5555 5552 5548 5545 5542 5538 5535
5550 5549 5548 5547 5546 5545 5545 5545 5545 5545 5546 5547 5547 5549 5550 5550 5551 5552 5552 5553 5554 5554 5554 5554 5554 5553 5551 5550 5548 5547 5545 5542 5540 5537 5534 5530 5527 5523
5539 5538 5537 5537 5536 5536 5535 5535 5535 5535 5535 5536 5536 5536 5538 5540 5540 5541 5541 5542 5543 5543 5542 5541 5540 5540 5539 5537 5536 5534 5532 5530 5528 5525 5522 5520 5517 5513